Regional Weather Roundup
Issued by NWS New Orleans/Baton Rouge, LA

Home | Current Version | Previous Version | Text Only | Print | Product List | Glossary On
Versions: 1 2 3 4 5 6 7 8 9 10 11 12 13 14 15 16 17 18 19 20 21 22 23 24 25 26 27 28 29 30 31 32 33 34 35 36 37 38 39 40 41 42 43 44 45 46 47 48 49 50
000
ASUS44 KLIX 191813
RWRLIX
NEW ORLEANS REGIONAL WEATHER ROUNDUP
NATIONAL WEATHER SERVICE NEW ORLEANS LA
1200 PM CST THU JAN 19 2017

NOTE: "FAIR" INDICATES FEW OR NO CLOUDS BELOW 12,000 FEET WITH NO
      SIGNIFICANT WEATHER AND/OR OBSTRUCTIONS TO VISIBILITY.
      SKY/WX - SKY CONDITION AND SIGNIFICANT WEATHER.
      TMP - AIR TEMPERATURE.     DP    - DEWPOINT TEMPERATURE.
      RH  - RELATIVE HUMIDITY.   PRES  - PRESSURE.
      HI  - HEAT INDEX.          WCI   - WIND CHILL INDEX.

*  THESE STATIONS ARE NOT NWS OR FAA STATIONS AND ARE NOT UNDER
   NWS QUALITY CONTROL.

LAZ038-040-048-061>063-065>067-069-191900-
SOUTHEAST LOUISIANA

CITY           SKY/WX    TMP DP  RH WIND       PRES   REMARKS
N.O. AUDUBON   NOT AVBL
N.O. INTL ARPT CLOUDY    75  67  76 S17G25    29.91F
6HR MIN TEMP:  69; 6HR MAX TEMP:  75;

N.O. LAKEFRONT CLOUDY    74  67  78 SW17      29.91F
6HR MIN TEMP:  71; 6HR MAX TEMP:  75;

N.O. DOWNTOWN*   N/A     75  68  78 S12G24    29.92F
6HR MIN TEMP:  72; 6HR MAX TEMP:  75;

RESERVE*       RAIN      74  71  90 SW17      29.91F
6HR MIN TEMP:  72; 6HR MAX TEMP:  74; 6HR PCP:  0.02;

SLIDELL        LGT RAIN  74  67  78 S8        29.91F
6HR MIN TEMP:  70; 6HR MAX TEMP:  74; 6HR PCP: TRACE;

BATON ROUGE    RAIN      67  64  90 SW7       29.90F FOG
6HR MIN TEMP:  65; 6HR MAX TEMP:  72; 6HR PCP:  4.60;

BOOTHVILLE     CLOUDY    73  69  87 S13G22    29.96F
6HR MIN TEMP:  67; 6HR MAX TEMP:  73;

BELLE CHASSE   CLOUDY    75  69  81 S21G32    29.92F
6HR MIN TEMP:  71; 6HR MAX TEMP:  75;

BOGALUSA*      CLOUDY    67  63  86 NW5       29.94F
6HR MIN TEMP:  67; 6HR MAX TEMP:  73; 6HR PCP:  0.06;

GALLIANO*      CLOUDY    74  68  81 S17G23    29.94F
6HR MIN TEMP:  71; 6HR MAX TEMP:  76; 6HR PCP:  0.01;

NEW ROADS*     LGT RAIN  65  64  94 S6        29.90F
6HR MIN TEMP:  65; 6HR MAX TEMP:  67; 6HR PCP:  0.73;

GONZALES*      MOCLDY    68  66  94 W3        29.90F
6HR MIN TEMP:  67; 6HR MAX TEMP:  73; 6HR PCP:  0.43;

HAMMOND*       HVY RAIN  68  63  83 W8        29.92F
HOUMA*         PTSUNNY   75  70  83 S12G18    29.91F
PORT FOURCHON* PTCLDY    73  70  88 S12       29.94F

$$

MSZ070-080>082-191900-
SOUTHERN MISSISSIPPI

CITY           SKY/WX    TMP DP  RH WIND       PRES   REMARKS
MCCOMB         HVY RAIN  63  60  90 CALM      29.92F FOG
6HR MIN TEMP:  63; 6HR MAX TEMP:  70; 6HR PCP:  1.30;

GULFPORT       CLOUDY    70  68  93 S9G17     29.93F FOG
6HR MIN TEMP:  67; 6HR MAX TEMP:  70;

BILOXI         CLOUDY    70  66  88 S14       29.93F FOG
PASCAGOULA     CLOUDY    74  68  81 S12G21    29.94F
6HR MIN TEMP:  67; 6HR MAX TEMP:  75; 6HR PCP:  0.33;

STENNIS ARPT*  LGT RAIN  73  50  43 S14G25    29.96S FOG

$$

COASTAL OBSERVATIONS
LAKE AND NEARSHORE STATIONS

STATION/POSITION TIME  TEMP    WIND        PRES    WAVE
                       AIR SEA DIR/SP/G            HT/PER
                 (UTC) (F)     (DEG/KT/KT) (MB)    (FT/S)
PASCAGOULA       1748   71     180/ 10/ 13 1013.8
WAVELAND YACHT   1748   68 62  190/ 10/ 15 1013.7
GRAND ISLE       1748   72 67  210/ 10/ 13 1014.4
SOUTHWEST PASS   1748          180/ 10/ 12   N/A
NEW CANAL        1748          220/ 10/ 18 1012.4
SHELL BEACH      1748          190/ 16/ 23 1013.7

OFFSHORE STATIONS

STATION/POSITION TIME  TEMP    WIND        PRES    WAVE
                       AIR SEA DIR/SP/G            HT/PER
                 (UTC) (F)     (DEG/KT/KT) (MB)    (FT/S)

$$




USA.gov is the U.S. government's official web portal to all federal, state and local government web resources and services.